Flag for Kazakhstan Weather past 2 weeks in Almaty, Kazakhstan

28 °F

Ice fog.

Feels Like: 28 °F
Forecast: 31 / 53 °F
Wind: 1 mph from North

Location: Almaty Airport

Current Time: Nov 30, 2015 at 9:25:59 AM

Latest Report: Nov 30, 2015 at 8:30 AM

Visibility: 1 mi

Pressure: 30.36 "Hg (27.48 "Hg at 790m altitude)

Humidity: 93%

Dew point: 27 °F

Location of AlmatyLocation

Historic Weather in Almaty — Graph


Almaty temperature yesterday

Maximum temperature yesterday: 52 °F (at 1:00 PM)
Minimum temperature yesterday: 32 °F (at 12:00 AM)
Average temperature yesterday: 42 °F

Past Weeks' High & Low Weather Summary

High52 °F (Nov 29, 1:00 PM)100% (Nov 16, 2:00 AM)30.51 "Hg (Nov 16, 2:00 AM)
Low23 °F (Nov 27, 7:00 AM)33% (Nov 16, 2:30 PM)29.80 "Hg (Nov 15, 2:00 PM)
Average36 °F84%30.23 "Hg
* Reported Nov 15 8:00 AM — Nov 30 8:00 AM, Almaty, Weather by CustomWeather, © 2015

Note: Actual official high and low records may vary slightly from our data, if they occured in-between our weather recording intervals... More about our weather records


Almaty weather history for previous 24 hours

Time TempWeatherWind HumidityBarometerVisibility
8:00 AM
Mon, Nov 30
28 °FIce fog.3 mph93%30.36 "Hg1 mi
7:30 AM28 °FIce fog.1 mph93%30.33 "Hg1 mi
6:30 AM28 °FIce fog.3 mph93%30.33 "Hg1 mi
6:00 AM30 °FIce fog.3 mph93%30.33 "Hg1 mi
5:30 AM30 °FIce fog.6 mph86%30.33 "Hg1 mi
5:00 AM28 °FIce fog.3 mph93%30.33 "Hg1 mi
4:30 AM28 °FIce fog.1 mph93%30.33 "Hg1 mi
4:00 AM30 °FIce fog.1 mph93%30.33 "Hg1 mi
3:00 AM30 °FIce fog.No wind93%30.33 "Hg1 mi
2:30 AM32 °FIce fog.3 mph93%30.33 "Hg1 mi
2:00 AM32 °FIce fog.3 mph87%30.33 "Hg1 mi
1:30 AM32 °FIce fog.1 mph87%30.33 "Hg1 mi
1:00 AM32 °FIce fog.1 mph87%30.33 "Hg1 mi
12:30 AM34 °FFog.3 mph87%30.33 "Hg1 mi
12:00 AM36 °FFog.8 mph81%30.30 "Hg1 mi
11:30 PM
Sun, Nov 29
36 °FFog.6 mph81%30.27 "Hg1 mi
11:00 PM36 °FFog.3 mph81%30.27 "Hg1 mi
10:30 PM37 °FFog.3 mph75%30.27 "Hg1 mi
10:00 PM37 °FPassing clouds.3 mph75%30.27 "Hg1 mi
9:30 PM39 °FPassing clouds.3 mph70%30.27 "Hg1 mi
9:00 PM41 °FPassing clouds.6 mph70%30.27 "Hg1 mi
8:30 PM39 °FPassing clouds.6 mph70%30.27 "Hg1 mi
8:00 PM41 °FPassing clouds.1 mph70%30.27 "Hg1 mi
7:30 PM43 °FPassing clouds.6 mph66%30.27 "Hg1 mi
7:00 PM43 °FPassing clouds.1 mph66%30.27 "Hg1 mi
6:30 PM43 °FPassing clouds.3 mph66%30.27 "Hg2 mi
6:00 PM43 °FPassing clouds.8 mph66%30.27 "Hg3 mi
5:30 PM43 °FPartly cloudy.8 mph66%30.24 "Hg3 mi
5:00 PM45 °FBroken clouds.6 mph57%30.24 "HgN/A
4:30 PM46 °FBroken clouds.8 mph57%30.24 "HgN/A
3:30 PM52 °FScattered clouds.8 mph41%30.24 "HgN/A
3:00 PM48 °FBroken clouds.8 mph50%30.21 "HgN/A
2:30 PM50 °FBroken clouds.10 mph47%30.21 "HgN/A
2:00 PM50 °FBroken clouds.10 mph47%30.18 "HgN/A
1:00 PM52 °FPartly sunny.10 mph41%30.21 "HgN/A
12:30 PM50 °FPartly sunny.6 mph47%30.21 "HgN/A
11:00 AM48 °FBroken clouds.6 mph46%30.21 "HgN/A
10:30 AM46 °FBroken clouds.6 mph50%30.18 "HgN/A
10:00 AM48 °FPartly sunny.3 mph43%30.18 "Hg3 mi
9:30 AM46 °FPartly sunny.3 mph46%30.18 "Hg3 mi
9:00 AM45 °FMore clouds than sun.3 mph46%30.15 "HgN/A
Weather by CustomWeather, © 2015

See weather overviewHow to use our weather pages